Weather in Tumul

Russia / Sakha (Yakutia) Republic     62°54′26″N   129°33′00″E
temp.,
°C
wind,
m/s
gust,
m/s
humid.,
%
clouds,
%
prec.,
mm/h
press.,
hPa
HPBL,
m
23 january, sat
sat2300:00−49se119958 0.0 103418
03:00−50se119956 0.0 103418
06:00−50ese119956 0.0 103422
09:00−51e119956 0.0 103422
12:00−48ne119660 0.0 103253
15:00−49ene019755 0.0 103423
18:00−49wnw129572 0.0 103323
21:00−50w119751 0.0 103618
24 january, sun
sun2400:00−48w359480 0.0 1035134
03:00−47w379179 0.0 1036194
06:00−50w229552 0.0 103931
09:00−50w239654 0.0 104143
12:00−47w249254 0.0 1043176
15:00−46w249295 0.0 1044143
18:00−49w229559 0.0 104620
21:00−50w229662 0.0 104732
25 january, mon
mon2500:00−49w129594 0.0 104830
03:00−50w119591 0.0 105024
06:00−50nw009680 0.0 105125
09:00−52nw009758 0.0 105123
12:00−48e119384 0.0 105293
15:00−50e119654 0.0 105136
18:00−51e119857 0.0 105226
21:00−50e129758 0.0 105330
26 january, tue
tue2600:00−50e129757 0.0 105230
03:00−52e119856 0.0 105026
06:00−52ene119859 0.0 104923
09:00−51ene119862 0.0 104926
12:00−47ene119460 0.0 104889
15:00−47nw119551 0.0 104430
18:00−49wnw229533 0.0 104440
21:00−47nw229448 0.0 104428
27 january, wed
wed2700:00−49w359545 0.0 104399
03:00−47w249548 0.0 104289
06:00−49w359542 0.0 1041102
09:00−49w359448 0.0 1041107
12:00−45w369358 0.0 1040186
15:00−46w359269 0.0 1041185
18:00−47w379356 0.0 1042162
21:00−46w369453 0.0 1039128